Kosmos-1997

operational
NORAD ID: 19788 Int'l Des: 1989-009 Owner: UNKS Country: SU
LEOCIRCULARPOLAR

About Kosmos-1997

Description loading...

Live Position

Loading 3D Globe...

Upcoming Passes

Altitude History

Altitude vs Time

uPlot chart will show altitude changes over time

Two-Line Element Set

1 19788U 89009D 26061.12020703 .00000036 00000-0 13714-3 0 9997
2 19788 82.6145 68.8529 0008653 221.6571 204.8503 12.63686701708989
Epoch: Mar 2, 2026 • Age: 31 hours

Current Status

Altitude 1430.4 km
Velocity 7.15 km/s
Sub-Earth Point -77.41°S, 24.75°E
Launch Date Feb 10, 1989
Age 37 years
Type other

Technical Details

Classification Payload
Mass 225.00 kg
Dry Mass 225.00 kg
Total Mass 225.00 kg
Length 1.60 m
Diameter 0.80 m
Span 7.00 m
Shape Cyl + Ant
Manufacturer NPOPM
Bus Type Strela-3
Phase Status In Orbit
Owner/State UNKS/SU

Large Constellations

Loading constellations...